[[{"header":{"parameterUnit":"m.s-1","parameterCategory":1,"la1":30.2991,"la2":30.254,"lo1":-89.0895,"lo2":-89.0444,"dy":0.0017,"dx":0.0017,"nx":28,"ny":28,"refTime":"2025-12-01T03:00:00:Z","depth":0,"parameterNumber":2,"parameterNumberName":"U-component_of_WINDS"},"data":[0,0,0,0,0,0,0,0,0,0,0,0,0,0,0,0,0,0,0,0,0,0,0,0,0,0,0,0,0,0,0,0,0,0,0,0,0,0,0,0,0,0,0,0,0,0,0,0,0,0,0,0,0,0,0,0,0,0,2.7711,2.7711,0,2.7722,2.7722,2.7722,2.7683,2.7682,2.768,2.7679,2.7691,2.7692,2.7693,0,0,0,0,0,0,0,0,0,0,0,0,0,2.7658,2.766,2.7711,2.7711,2.7711,2.7722,2.7722,2.7722,2.7683,2.7682,2.768,2.7679,2.769,2.7692,2.7694,0,0,0,0,0,0,0,0,0,0,0,0,0,2.7676,2.766,2.7711,2.7693,2.7691,2.7721,2.7722,2.7722,2.7683,2.7681,2.768,2.7678,2.769,2.7692,2.7694,2.7742,0,0,2.77,2.7701,0,0,0,0,0,0,0,0,2.7675,2.7678,2.7695,2.7694,2.7693,2.7699,2.7707,2.7729,2.7684,2.7686,2.7679,2.7677,2.7695,2.7696,2.7702,2.7742,2.7743,2.77,2.7702,2.7702,2.7703,0,0,0,0,0,0,0,2.7674,2.7678,2.7715,2.7696,2.7694,2.7685,2.7686,2.7711,2.77,2.7686,2.7683,2.7685,2.7694,2.77,2.7702,2.7743,2.77,2.7702,2.7703,2.7704,2.7825,2.7827,0,0,0,0,0,0,2.7675,2.7677,2.7715,2.7715,2.7679,2.7687,2.7688,2.7699,2.77,2.7698,2.7686,2.7683,2.7698,2.77,2.7703,2.776,2.7702,2.7704,2.7706,2.7823,2.7825,2.7827,0,0,0,0,0,0,2.7674,2.7679,2.7714,2.7695,2.7699,2.769,2.7702,2.77,2.7706,2.77,2.7698,2.7695,2.7696,2.77,2.7733,2.776,2.7705,2.7707,2.7821,2.7824,2.7826,2.7874,0,0,0,0,0,0,2.7673,2.7679,2.7696,2.7696,2.77,2.7744,2.7704,2.7701,2.771,2.7706,2.7708,2.7706,2.7695,2.773,2.7735,2.7762,2.7709,2.7818,2.7822,2.7825,2.787,2.7878,2.7886,0,0,0,0,0,2.7671,2.7709,2.7697,2.7702,2.7722,2.7745,2.7748,2.7734,2.7712,2.773,2.7727,2.7706,2.7756,2.7734,2.7739,2.7767,2.7816,2.7821,2.7825,2.7867,2.7877,2.7885,0,0,0,0,0,0,2.7712,2.7708,2.7695,2.7734,2.7741,2.7739,2.7761,2.7745,2.7757,2.7753,2.7735,2.7736,2.7773,2.7773,2.7748,2.7814,2.7783,2.7788,2.7812,2.7822,2.7829,2.7829,2.7711,0,0,0,0,0,2.7726,2.7745,2.7741,2.7775,2.7779,2.777,2.7779,2.7768,2.7774,2.7776,2.7775,2.7782,2.7799,2.781,2.7826,2.787,2.7871,2.7892,2.79,2.7906,2.7911,2.7937,2.7947,2.7842,2.7842,2.7842,0,0,2.7754,2.7754,2.7767,2.7784,2.7787,2.7808,2.7772,2.7795,2.781,2.778,2.7811,2.7811,2.7817,2.7857,2.7874,2.7858,2.7941,2.7912,2.7917,2.7919,2.7942,2.7952,2.7961,2.7845,2.7844,2.7844,0,0,2.7816,2.7818,2.7847,2.7852,2.7858,2.7852,2.7859,2.786,2.7859,2.789,2.7869,2.7887,2.7917,2.7923,2.7929,2.7997,2.7979,2.8002,2.8042,2.8067,2.8075,2.8082,2.8107,2.8116,2.8007,2.8007,2.8007,0,2.785,2.788,2.7865,2.789,2.7898,2.7872,2.7903,2.7908,2.7919,2.7926,2.7908,2.7946,2.7949,2.799,2.8007,2.8013,2.8021,2.8001,2.8075,2.8082,2.8089,2.8112,2.8122,2.801,2.801,2.801,2.8009,0,2.7922,2.7943,2.7967,2.7979,2.799,2.8018,2.8008,2.8021,2.801,2.8006,2.804,2.8042,2.8058,2.8067,2.8056,2.8108,2.8098,2.8078,2.8046,2.8102,2.8124,2.8133,2.8014,2.8013,2.8012,2.8012,0,0,2.8008,2.8013,2.8022,2.8028,2.8034,2.805,2.8078,2.8094,2.8106,2.8115,2.8138,2.8165,2.8148,2.8156,2.8145,2.8167,2.8222,2.8145,2.8145,2.8159,2.828,2.8295,2.8306,2.821,2.8212,2.8213,2.828,0,2.807,2.8116,2.8105,2.8151,2.8172,2.8149,2.8173,2.818,2.8178,2.8195,2.8193,2.8212,2.8187,2.8192,2.8212,2.8211,2.8246,2.8206,2.8232,2.8234,2.8232,2.8317,2.8333,2.8396,2.8288,2.829,2.8291,0,2.8147,2.816,2.8209,2.8213,2.8221,2.8243,2.8258,2.8275,2.8283,2.828,2.829,2.8276,2.8304,2.8273,2.8312,2.8285,2.8296,2.8297,2.8299,2.8301,2.8265,2.8322,2.8415,2.8425,2.8304,2.8303,2.8302,0,2.8206,2.8236,2.8269,2.8275,2.828,2.8297,2.83,2.8306,2.8317,2.8331,2.8338,2.8355,2.8364,2.8377,2.8369,2.8346,2.8411,2.8378,2.841,2.841,2.8424,2.8423,2.852,2.843,2.843,2.843,2.843,0,2.8276,2.8307,2.8296,2.8317,2.8351,2.8339,2.8373,2.8374,2.838,2.8401,2.8383,2.8403,2.839,2.841,2.8404,2.8438,2.8442,2.8441,2.8439,2.8443,2.8443,2.845,2.8445,2.8432,2.8432,2.8431,2.8431,0,2.8348,2.8341,2.8377,2.838,2.8381,2.8407,2.841,2.843,2.8427,2.8454,2.846,2.8455,2.8478,2.8471,2.8494,2.849,2.8535,2.8527,2.8532,2.853,2.8563,2.856,2.8668,2.8682,2.8582,2.8583,2.8584,0,2.8393,2.8416,2.8422,2.8435,2.844,2.8461,2.8472,2.8461,2.8475,2.8487,2.8506,2.8526,2.8542,2.858,2.8579,2.8598,2.8591,2.8627,2.8593,2.8597,2.8592,2.8591,2.8594,2.8634,2.8635,2.8636,2.8637,0,2.8474,2.847,2.8487,2.8504,2.8519,2.8532,2.8543,2.8555,2.8545,2.8561,2.8584,2.8596,2.8622,2.8643,2.8661,2.8665,2.865,2.8648,2.8656,2.866,2.8663,2.8663,2.8551,2.8645,2.8644,2.8643,2.8643,2.8643,2.8534,2.8554,2.8562,2.8583,2.859,2.8602,2.8621,2.8621,2.864,2.866,2.8652,2.8679,2.8689,2.8711,2.8717,2.8739,2.8725,2.8737,2.874,2.8743,2.8748,2.8659,2.8742,2.8742,2.8741,2.8741,2.8741,0,2.8614,2.8619,2.8638,2.8655,2.8671,2.8656,2.8668,2.8683,2.8707,2.8717,2.8734,2.8761,2.8783,2.8784,2.8805,2.8822,2.8815,2.8827,2.8826,2.8828,2.8759,2.875,2.8832,2.8832,2.8832,2.8832,2.8832,2.8832,2.8658,2.8692,2.869,2.8729,2.8733,2.8759,2.8768,2.8779,2.8787,2.8818,2.8836,2.8837,2.8844,2.8865,2.8885,2.8885,2.8894,2.8908,2.8906,2.8841,2.8832,2.8824,2.8815,2.891,2.891,2.8973,2.8974,2.8974]},{"header":{"parameterUnit":"m.s-1","parameterCategory":1,"la1":30.2991,"la2":30.254,"lo1":-89.0895,"lo2":-89.0444,"dy":0.0017,"dx":0.0017,"nx":28,"ny":28,"refTime":"2025-12-01T03:00:00:Z","depth":0,"parameterNumber":3,"parameterNumberName":"V-component_of_WINDS"},"data":[0,0,0,0,0,0,0,0,0,0,0,0,0,0,0,0,0,0,0,0,0,0,0,0,0,0,0,0,0,0,0,0,0,0,0,0,0,0,0,0,0,0,0,0,0,0,0,0,0,0,0,0,0,0,0,0,0,0,-7.3205,-7.3207,0,-7.3358,-7.3359,-7.3361,-7.3335,-7.3332,-7.3329,-7.3327,-7.3475,-7.3481,-7.3488,0,0,0,0,0,0,0,0,0,0,0,0,0,-7.2886,-7.2892,-7.3205,-7.3207,-7.3209,-7.3357,-7.3359,-7.3361,-7.3335,-7.3332,-7.3329,-7.3326,-7.3473,-7.3481,-7.3488,0,0,0,0,0,0,0,0,0,0,0,0,0,-7.303,-7.2894,-7.3205,-7.3214,-7.3216,-7.3357,-7.336,-7.3362,-7.3336,-7.3332,-7.3328,-7.3324,-7.3471,-7.348,-7.3489,-7.3628,0,0,-7.3519,-7.3523,0,0,0,0,0,0,0,0,-7.3021,-7.3041,-7.3211,-7.3214,-7.3217,-7.3323,-7.3301,-7.3451,-7.3337,-7.329,-7.3327,-7.3322,-7.3427,-7.344,-7.3477,-7.3635,-7.3641,-7.352,-7.3525,-7.353,-7.3532,0,0,0,0,0,0,0,-7.3011,-7.3035,-7.3265,-7.3213,-7.3217,-7.3208,-7.3225,-7.3329,-7.3379,-7.3294,-7.3292,-7.3311,-7.3428,-7.3468,-7.3481,-7.3644,-7.3519,-7.3528,-7.3534,-7.3538,-7.3923,-7.3928,0,0,0,0,0,0,-7.3,-7.3026,-7.326,-7.327,-7.3107,-7.3217,-7.3235,-7.3293,-7.3378,-7.3387,-7.3314,-7.3309,-7.3454,-7.3469,-7.3486,-7.3654,-7.353,-7.3539,-7.3544,-7.3919,-7.3924,-7.3929,0,0,0,0,0,0,-7.2993,-7.3021,-7.3254,-7.3148,-7.3177,-7.3227,-7.3292,-7.3298,-7.3338,-7.3393,-7.3401,-7.3347,-7.3451,-7.3472,-7.3594,-7.3659,-7.3543,-7.3552,-7.3914,-7.3921,-7.3927,-7.3992,0,0,0,0,0,0,-7.2984,-7.3019,-7.3073,-7.3149,-7.3183,-7.3362,-7.3296,-7.3304,-7.3356,-7.335,-7.3426,-7.3434,-7.345,-7.3579,-7.3603,-7.367,-7.3559,-7.3908,-7.3917,-7.3925,-7.3984,-7.4,-7.4014,0,0,0,0,0,-7.2973,-7.3084,-7.3076,-7.3104,-7.3253,-7.3366,-7.3385,-7.3402,-7.3361,-7.3415,-7.3451,-7.3432,-7.3648,-7.3592,-7.3619,-7.3689,-7.3904,-7.3914,-7.3924,-7.3978,-7.3997,-7.4014,0,0,0,0,0,0,-7.3011,-7.3094,-7.3086,-7.3226,-7.3289,-7.3361,-7.343,-7.3422,-7.3496,-7.3488,-7.3504,-7.3522,-7.3645,-7.3679,-7.3615,-7.3828,-7.377,-7.3786,-7.3802,-7.3821,-7.3835,-7.3824,-7.3567,0,0,0,0,0,-7.3036,-7.3123,-7.319,-7.3306,-7.3339,-7.338,-7.3429,-7.3438,-7.3503,-7.3529,-7.3573,-7.3635,-7.3718,-7.3771,-7.3849,-7.3989,-7.4005,-7.4051,-7.4066,-7.4078,-7.4091,-7.4168,-7.4189,-7.3962,-7.3962,-7.3962,0,0,-7.3088,-7.3144,-7.3197,-7.3316,-7.3366,-7.3454,-7.3402,-7.3497,-7.3562,-7.3542,-7.3661,-7.3696,-7.3766,-7.3898,-7.3958,-7.393,-7.4157,-7.4091,-7.41,-7.4107,-7.418,-7.4202,-7.4221,-7.3969,-7.3968,-7.3967,0,0,-7.3227,-7.3279,-7.3382,-7.3435,-7.3513,-7.3539,-7.3564,-7.3638,-7.3661,-7.3781,-7.3768,-7.3845,-7.3985,-7.4037,-7.4081,-7.4242,-7.4227,-7.4267,-7.4344,-7.4418,-7.4436,-7.4452,-7.4509,-7.453,-7.428,-7.428,-7.428,0,-7.3281,-7.3416,-7.3436,-7.3534,-7.3586,-7.3575,-7.3679,-7.3728,-7.3826,-7.3861,-7.3829,-7.4007,-7.4054,-7.4197,-7.4237,-7.4273,-7.4301,-7.4258,-7.4433,-7.4449,-7.4464,-7.4518,-7.454,-7.4284,-7.4284,-7.4284,-7.4283,0,-7.3478,-7.3572,-7.3646,-7.3745,-7.3805,-7.3905,-7.3938,-7.3997,-7.4,-7.403,-7.4151,-7.4207,-7.4297,-7.4332,-7.4335,-7.4477,-7.4457,-7.4429,-7.437,-7.4489,-7.4541,-7.4562,-7.4291,-7.4289,-7.4288,-7.4287,0,0,-7.3645,-7.3756,-7.3782,-7.3827,-7.3913,-7.3985,-7.4084,-7.4175,-7.4225,-7.4293,-7.4376,-7.4497,-7.4472,-7.4522,-7.4531,-7.4596,-7.4721,-7.456,-7.4562,-7.4588,-7.488,-7.49,-7.4924,-7.4712,-7.4716,-7.4719,-7.4874,0,-7.3793,-7.3971,-7.3993,-7.415,-7.4237,-7.4229,-7.4315,-7.4376,-7.4407,-7.4483,-7.4515,-7.46,-7.4561,-7.4591,-7.4656,-7.4692,-7.4779,-7.4681,-7.4787,-7.4791,-7.477,-7.4952,-7.4973,-7.5117,-7.4894,-7.4898,-7.49,0,-7.3989,-7.4066,-7.4234,-7.4309,-7.4346,-7.4424,-7.4509,-7.4583,-7.4651,-7.4669,-7.4727,-7.4727,-7.4828,-7.4766,-7.4905,-7.4837,-7.4882,-7.4906,-7.4912,-7.4922,-7.4852,-7.4966,-7.5163,-7.5184,-7.4932,-7.493,-7.4927,0,-7.4093,-7.4239,-7.4359,-7.4397,-7.4488,-7.4543,-7.4583,-7.4648,-7.4702,-7.4776,-7.4811,-7.4894,-7.494,-7.5004,-7.5027,-7.498,-7.5164,-7.5104,-7.518,-7.5179,-7.5218,-7.5215,-7.5425,-7.5248,-7.5247,-7.5247,-7.5247,0,-7.4256,-7.4359,-7.4407,-7.4481,-7.4595,-7.4618,-7.473,-7.4767,-7.4826,-7.4904,-7.4902,-7.4975,-7.5001,-7.5079,-7.5097,-7.5208,-7.5229,-7.5244,-7.5248,-7.5245,-7.5243,-7.5273,-7.5264,-7.5253,-7.5251,-7.525,-7.5249,0,-7.4392,-7.4429,-7.4559,-7.4635,-7.4657,-7.4738,-7.4802,-7.4872,-7.4902,-7.5002,-7.5027,-7.5073,-7.5164,-7.5194,-7.5303,-7.5315,-7.5446,-7.544,-7.5423,-7.5424,-7.5498,-7.549,-7.5734,-7.5767,-7.5569,-7.557,-7.5572,0,-7.4493,-7.4572,-7.4659,-7.4713,-7.4756,-7.4843,-7.4899,-7.4924,-7.4982,-7.5067,-7.5127,-7.5218,-7.5292,-7.5438,-7.548,-7.5563,-7.556,-7.5639,-7.5572,-7.5567,-7.5561,-7.5556,-7.5563,-7.5652,-7.5654,-7.5655,-7.5657,0,-7.4669,-7.4684,-7.4766,-7.4855,-7.4922,-7.4993,-7.5061,-7.5104,-7.514,-7.5204,-7.53,-7.5358,-7.5471,-7.5561,-7.5647,-7.5685,-7.5677,-7.5678,-7.57,-7.5697,-7.5684,-7.5692,-7.5458,-7.5672,-7.567,-7.5669,-7.5668,-7.5668,-7.479,-7.4861,-7.4933,-7.5025,-7.5079,-7.5144,-7.5214,-7.5254,-7.5334,-7.5431,-7.544,-7.5543,-7.5609,-7.5724,-7.5767,-7.5846,-7.5823,-7.5854,-7.5862,-7.587,-7.5876,-7.5672,-7.5861,-7.5861,-7.586,-7.586,-7.586,0,-7.4966,-7.5013,-7.5097,-7.5194,-7.5266,-7.5255,-7.533,-7.539,-7.5481,-7.5545,-7.562,-7.5729,-7.5817,-7.5866,-7.5954,-7.6007,-7.6006,-7.6029,-7.6025,-7.6034,-7.5891,-7.5864,-7.6029,-7.6029,-7.6029,-7.6029,-7.6029,-7.6029,-7.5066,-7.5185,-7.5209,-7.5354,-7.54,-7.5502,-7.5546,-7.5605,-7.5656,-7.5779,-7.5854,-7.5887,-7.5945,-7.6037,-7.6116,-7.6128,-7.616,-7.6187,-7.6196,-7.6061,-7.6044,-7.6027,-7.6002,-7.6193,-7.6194,-7.6332,-7.6334,-7.6335]}]]